CW2840 Weather Reports


time (UTC)temp
F
wind
direction
speed
knots
gust
knots
rain 1hr
in
rain 24hr
in
rain mn
in
humidity
%
barometer
mb
20260504012932 71 176 0.9 2.6 0.00 0.00 0.00 49 1017.6
20260504011432 72 178 0.9 2.6 0.00 0.00 0.00 47 1017.5
20260504005934 73 162 1.7 4.3 0.00 0.00 0.00 46 1017.5
20260504004430 74 159 1.7 4.3 0.00 0.00 0.00 45 1017.5
20260504002927 74 166 1.7 6.1 0.00 0.00 0.00 43 1017.6
20260504001427 75 142 2.6 7.8 0.00 0.00 0.00 42 1017.6
20260504000632 76 157 2.6 6.1 0.00 0.00 0.00 40 1017.6
20260503234423 77 179 1.7 6.1 0.00 0.00 0.00 39 1017.6
20260503232924 77 130 2.6 7.8 0.00 0.00 0.00 37 1017.7
20260503231419 78 110 3.5 7.8 0.00 0.00 0.00 37 1017.8
20260503225914 78 123 2.6 6.1 0.00 0.00 0.00 36 1017.8
20260503224411 78 161 1.7 4.3 0.00 0.00 0.00 36 1018.0
20260503222909 78 99 4.3 9.6 0.00 0.00 0.00 36 1018.2
20260503221407 79 99 4.3 7.8 0.00 0.00 0.00 36 1018.4
20260503215908 78 24 1.7 6.1 0.00 0.00 0.00 35 1018.3
20260503214405 79 96 3.5 7.8 0.00 0.00 0.00 35 1018.5
20260503212906 79 175 2.6 6.1 0.00 0.00 0.00 33 1018.8
20260503211404 80 140 2.6 7.8 0.00 0.00 0.00 33 1019.0
20260503205906 80 110 3.5 7.8 0.00 0.00 0.00 36 1019.1
20260503204406 79 155 2.6 6.1 0.00 0.00 0.00 37 1019.5
20260503202907 80 178 2.6 9.6 0.00 0.00 0.00 34 1019.7
20260503201403 80 66 2.6 9.6 0.00 0.00 0.00 38 1019.9
20260503195907 79 94 2.6 11.3 0.00 0.00 0.00 35 1020.2
20260503194404 80 125 3.5 7.8 0.00 0.00 0.00 35 1020.5
20260503192906 80 164 1.7 9.6 0.00 0.00 0.00 36 1020.7
20260503191403 81 121 2.6 9.6 0.00 0.00 0.00 34 1020.9
20260503185905 80 142 2.6 7.8 0.00 0.00 0.00 31 1021.0
20260503184404 80 99 2.6 6.1 0.00 0.00 0.00 38 1021.1
20260503182907 80 134 2.6 7.8 0.00 0.00 0.00 38 1021.3
20260503181403 78 0 4.3 7.8 0.00 0.00 0.00 35 1021.6
20260503175905 79 124 3.5 6.1 0.00 0.00 0.00 37 1021.8
20260503174404 79 175 1.7 9.6 0.00 0.00 0.00 39 1022.3
20260503172906 78 149 3.5 12.2 0.00 0.00 0.00 37 1022.6
20260503171404 78 116 1.7 9.6 0.00 0.00 0.00 40 1022.7
20260503131400 59 358 0.9 1.7 0.00 0.00 0.00 89 1022.2
20260503090508 56 0 0.0 0.0 0.00 0.00 0.00 88 1020.7
20260503080508 57 0 0.0 0.0 0.00 0.00 0.00 87 1020.8
20260503072006 57 0 0.0 0.0 0.00 0.00 0.00 86 1020.8
20260503071857 58 0 0.0 0.0 0.00 0.00 0.00 86 1021.0
20260503055005 59 0 0.0 0.0 0.00 0.00 0.00 82 1021.1
20260503053506 59 0 0.0 0.0 0.00 0.00 0.00 82 1021.0
20260503052710 59 0 0.0 0.0 0.00 0.00 0.00 81 1020.8
20260503050505 60 0 0.0 0.0 0.00 0.00 0.00 81 1020.9
20260503045003 60 0 0.0 0.0 0.00 0.00 0.00 81 1020.7
20260503043504 60 0 0.0 0.0 0.00 0.00 0.00 80 1020.6
20260503042003 61 0 0.0 2.6 0.00 0.00 0.00 79 1020.6
20260503040505 61 0 0.0 0.0 0.00 0.00 0.00 78 1020.8
20260503035002 61 0 0.0 0.0 0.00 0.00 0.00 76 1020.6
20260503033503 62 0 0.0 0.0 0.00 0.00 0.00 75 1020.3
20260503032000 62 0 0.0 0.0 0.00 0.00 0.00 74 1020.1
20260503030502 63 0 0.0 0.0 0.00 0.00 0.00 73 1020.1
20260503025001 63 0 0.0 0.0 0.00 0.00 0.00 72 1020.2
20260503023501 63 0 0.0 0.0 0.00 0.00 0.00 71 1019.9
20260503022000 64 0 0.0 0.0 0.00 0.00 0.00 70 1019.8
20260503020501 65 0 0.0 0.0 0.00 0.02 0.00 67 1019.6
20260503015654 66 0 0.0 0.0 0.00 0.05 0.00 65 1019.3